This is the latest recevied weather packets stored in our database for station/object IW2MUC-12. If no packets are shown the sender has not sent any weather packets the latest 10 day(s).
| Time | Temp. | Humidity | Pressure | Rain* | Wind** | Luminosity | Snow |
|---|---|---|---|---|---|---|---|
| 1788367530 | 25.56° C | 53% | 989 hPa | - | - | - | - |
| 1788366926 | 25° C | 54% | 989 hPa | - | - | - | - |
| 1788341638 | 30° C | 46% | 997 hPa | - | - | - | - |
| 1788341030 | 29.44° C | 48% | 997 hPa | - | - | - | - |
| 1788340426 | 28.89° C | 48% | 997 hPa | - | - | - | - |
| 1788339822 | 28.89° C | 47% | 998 hPa | - | - | - | - |
| 1788339218 | 28.89° C | 47% | 998 hPa | - | - | - | - |
| 1788338614 | 28.89° C | 47% | 998 hPa | - | - | - | - |
| 1788338010 | 29.44° C | 46% | 998 hPa | - | - | - | - |
| 1788337406 | 29.44° C | 44% | 999 hPa | - | - | - | - |
| 1788336790 | 29.44° C | 49% | 995 hPa | - | - | - | - |
| 1788336179 | 28.33° C | 52% | 995 hPa | - | - | - | - |
| 1788335575 | 27.22° C | 54% | 995 hPa | - | - | - | - |
| 1788334971 | 25.56° C | 56% | 995 hPa | - | - | - | - |
| 1788334367 | 24.44° C | 56% | 995 hPa | - | - | - | - |
| 1788333775 | 24.44° C | 56% | 995 hPa | - | - | - | - |
| 1788333159 | 23.89° C | 59% | 993 hPa | - | - | - | - |
| 1788282002 | 26.67° C | 57% | 991 hPa | - | - | - | - |
| 1788281398 | 26.67° C | 58% | 989 hPa | - | - | - | - |
| 1788280786 | 26.11° C | 58% | 989 hPa | - | - | - | - |
| 1788280182 | 26.11° C | 58% | 989 hPa | - | - | - | - |
| 1788279578 | 25.56° C | 58% | 990 hPa | - | - | - | - |
| 1788278370 | 24.44° C | 59% | 991 hPa | - | - | - | - |
| 1788196797 | 24.44° C | 56% | 986 hPa | - | - | - | - |
| 1788167588 | 32.78° C | 45% | 989 hPa | - | - | - | - |
* Rain since midnight (hover to see other rain measurements)
** Current wind speed in m/s (hover to see current wind gust speed)